When you browse on this site, cookies collect data to enhance your experience and personalize the content and advertising you see.
Visit our Privacy Policy to learn more. By continuing to use the site, you agree to this use of cookies and data.
  • Em Portugal
  • Lista de países
  • Para 7 dias
  • Temperatura da água
  • Mapas de satélite
  • Mapa do tempo
  • Widgets de tempo
  • user-avatar
    Iniciar Sessão

    Previsão horária em Novoselki (Vishnevo)

    Hoje, 20 Junho, Quinta-feira

    Tempo Temperatura Precipitação Vento Pressão Humidade
    00:00 +18°C° 0.1 mm 2 m/s 742 mmHg 84%
    01:00 +17°C° 0.1 mm 2 m/s 742 mmHg 86%
    02:00 +17°C° 0.1 mm 3 m/s 742 mmHg 87%
    03:00 +17°C° 0.5 mm 3 m/s 741 mmHg 89%
    04:00 +17°C° 0.5 mm 2 m/s 741 mmHg 91%
    05:00 +17°C° 0.5 mm 2 m/s 741 mmHg 93%
    06:00 +18°C° 0.2 mm 3 m/s 741 mmHg 91%
    07:00 +20°C° 0.2 mm 3 m/s 741 mmHg 90%
    08:00 +21°C° 0.2 mm 3 m/s 741 mmHg 88%
    09:00 +22°C° 0.5 mm 4 m/s 741 mmHg 82%
    10:00 +25°C° 0.5 mm 5 m/s 741 mmHg 76%
    11:00 +26°C° 0.5 mm 5 m/s 741 mmHg 70%
    12:00 +26°C° 0.4 mm 5 m/s 740 mmHg 71%
    13:00 +26°C° 0.4 mm 5 m/s 740 mmHg 71%
    14:00 +26°C° 0.4 mm 5 m/s 740 mmHg 72%
    15:00 +26°C° 0.7 mm 4 m/s 740 mmHg 76%
    16:00 +25°C° 0.7 mm 3 m/s 740 mmHg 79%
    17:00 +25°C° 0.7 mm 3 m/s 739 mmHg 83%
    18:00 +24°C° 0.4 mm 3 m/s 739 mmHg 84%
    19:00 +22°C° 0.4 mm 3 m/s 739 mmHg 86%
    20:00 +22°C° 0.4 mm 3 m/s 739 mmHg 87%
    21:00 +21°C° 0 mm 3 m/s 739 mmHg 89%
    22:00 +20°C° 0 mm 3 m/s 739 mmHg 92%
    23:00 +20°C° 0 mm 3 m/s 739 mmHg 94%

    Amanhã, 21 Junho, Sexta-feira

    Tempo Temperatura Precipitação Vento Pressão Humidade
    00:00 +19°C° 0 mm 2 m/s 739 mmHg 94%
    01:00 +19°C° 0 mm 2 m/s 739 mmHg 95%
    02:00 +19°C° 0 mm 2 m/s 740 mmHg 95%
    03:00 +19°C° 0 mm 2 m/s 740 mmHg 96%
    04:00 +19°C° 0 mm 2 m/s 740 mmHg 96%
    05:00 +19°C° 0 mm 2 m/s 740 mmHg 97%
    06:00 +20°C° 0 mm 2 m/s 740 mmHg 94%
    07:00 +23°C° 0 mm 2 m/s 740 mmHg 91%
    08:00 +24°C° 0 mm 3 m/s 740 mmHg 88%
    09:00 +25°C° 0.7 mm 3 m/s 740 mmHg 82%
    10:00 +27°C° 0.7 mm 3 m/s 740 mmHg 76%
    11:00 +28°C° 0.7 mm 3 m/s 740 mmHg 71%
    12:00 +28°C° 0.2 mm 3 m/s 740 mmHg 68%
    13:00 +29°C° 0.2 mm 3 m/s 740 mmHg 66%
    14:00 +29°C° 0.2 mm 4 m/s 740 mmHg 63%
    15:00 +29°C° 0.3 mm 3 m/s 740 mmHg 66%
    16:00 +28°C° 0.3 mm 3 m/s 740 mmHg 69%
    17:00 +28°C° 0.3 mm 3 m/s 740 mmHg 71%
    18:00 +27°C° 0.4 mm 2 m/s 740 mmHg 76%
    19:00 +25°C° 0.4 mm 1 m/s 739 mmHg 80%
    20:00 +24°C° 0.4 mm 1 m/s 739 mmHg 84%
    21:00 +23°C° 0 mm 1 m/s 740 mmHg 86%
    22:00 +22°C° 0 mm 1 m/s 740 mmHg 88%
    23:00 +21°C° 0 mm 1 m/s 740 mmHg 89%

    Depois de amanhã, 22 Junho, Sábado

    Tempo Temperatura Precipitação Vento Pressão Humidade
    00:00 +21°C° 0 mm 1 m/s 740 mmHg 90%
    01:00 +21°C° 0 mm 1 m/s 740 mmHg 90%
    02:00 +21°C° 0 mm 1 m/s 741 mmHg 90%
    03:00 +21°C° 0.2 mm 1 m/s 741 mmHg 91%
    04:00 +21°C° 0.2 mm 1 m/s 741 mmHg 92%
    05:00 +19°C° 0.2 mm 2 m/s 741 mmHg 94%
    06:00 +20°C° 0.4 mm 2 m/s 741 mmHg 93%
    07:00 +20°C° 0.4 mm 2 m/s 742 mmHg 92%
    08:00 +21°C° 0.4 mm 2 m/s 742 mmHg 91%
    09:00 +21°C° 0.6 mm 2 m/s 742 mmHg 91%
    10:00 +21°C° 0.6 mm 3 m/s 742 mmHg 90%
    11:00 +22°C° 0.6 mm 3 m/s 743 mmHg 89%
    12:00 +22°C° 0.8 mm 3 m/s 743 mmHg 86%
    13:00 +24°C° 0.8 mm 3 m/s 743 mmHg 84%
    14:00 +25°C° 0.8 mm 3 m/s 743 mmHg 81%
    15:00 +24°C° 1 mm 3 m/s 743 mmHg 84%
    16:00 +22°C° 1 mm 3 m/s 743 mmHg 86%
    17:00 +21°C° 1 mm 3 m/s 743 mmHg 89%
    18:00 +21°C° 0.3 mm 3 m/s 743 mmHg 88%
    19:00 +20°C° 0.3 mm 3 m/s 743 mmHg 88%
    20:00 +20°C° 0.3 mm 3 m/s 743 mmHg 87%
    21:00 +19°C° 0 mm 3 m/s 744 mmHg 86%
    22:00 +18°C° 0 mm 4 m/s 744 mmHg 85%
    23:00 +17°C° 0 mm 4 m/s 744 mmHg 84%

    23 Junho, Domingo

    Tempo Temperatura Precipitação Vento Pressão Humidade
    00:00 +17°C° 0 mm 4 m/s 744 mmHg 82%
    01:00 +17°C° 0 mm 4 m/s 744 mmHg 80%
    02:00 +16°C° 0 mm 5 m/s 744 mmHg 78%
    03:00 +15°C° 0 mm 5 m/s 745 mmHg 73%
    04:00 +15°C° 0 mm 5 m/s 745 mmHg 68%
    05:00 +14°C° 0 mm 5 m/s 745 mmHg 63%
    06:00 +15°C° 0 mm 5 m/s 745 mmHg 66%
    07:00 +15°C° 0 mm 5 m/s 745 mmHg 69%
    08:00 +15°C° 0 mm 5 m/s 745 mmHg 72%
    09:00 +17°C° 0.1 mm 4 m/s 746 mmHg 74%
    10:00 +17°C° 0.1 mm 4 m/s 746 mmHg 77%
    11:00 +18°C° 0.1 mm 4 m/s 746 mmHg 79%
    12:00 +19°C° 0 mm 4 m/s 746 mmHg 77%
    13:00 +20°C° 0 mm 5 m/s 746 mmHg 76%
    14:00 +21°C° 0 mm 5 m/s 746 mmHg 74%
    15:00 +21°C° 0 mm 5 m/s 746 mmHg 75%
    16:00 +21°C° 0 mm 4 m/s 746 mmHg 75%
    17:00 +22°C° 0 mm 4 m/s 746 mmHg 76%
    18:00 +21°C° 0 mm 4 m/s 746 mmHg 79%
    19:00 +20°C° 0 mm 3 m/s 746 mmHg 83%
    20:00 +19°C° 0 mm 2 m/s 746 mmHg 87%
    21:00 +18°C° 0 mm 3 m/s 746 mmHg 87%
    22:00 +18°C° 0 mm 3 m/s 747 mmHg 86%
    23:00 +17°C° 0 mm 3 m/s 747 mmHg 86%

    24 Junho, Segunda-feira

    Tempo Temperatura Precipitação Vento Pressão Humidade
    00:00 +17°C° 0 mm 3 m/s 747 mmHg 80%
    01:00 +17°C° 0 mm 4 m/s 747 mmHg 74%
    02:00 +15°C° 0 mm 4 m/s 747 mmHg 68%
    03:00 +15°C° 0 mm 4 m/s 747 mmHg 71%
    04:00 +15°C° 0 mm 4 m/s 747 mmHg 74%
    05:00 +14°C° 0 mm 4 m/s 747 mmHg 77%
    06:00 +15°C° 0 mm 4 m/s 747 mmHg 77%
    07:00 +18°C° 0 mm 4 m/s 748 mmHg 77%
    08:00 +19°C° 0 mm 4 m/s 748 mmHg 77%
    09:00 +20°C° 0 mm 4 m/s 748 mmHg 73%
    10:00 +21°C° 0 mm 4 m/s 748 mmHg 70%
    11:00 +23°C° 0 mm 4 m/s 748 mmHg 66%
    12:00 +23°C° 0 mm 4 m/s 748 mmHg 65%
    13:00 +23°C° 0 mm 4 m/s 748 mmHg 64%
    14:00 +25°C° 0 mm 4 m/s 748 mmHg 63%
    15:00 +25°C° 0 mm 4 m/s 748 mmHg 64%
    16:00 +23°C° 0 mm 4 m/s 748 mmHg 65%
    17:00 +24°C° 0 mm 3 m/s 748 mmHg 67%
    18:00 +22°C° 0 mm 3 m/s 748 mmHg 70%
    19:00 +20°C° 0 mm 3 m/s 748 mmHg 73%
    20:00 +19°C° 0 mm 3 m/s 748 mmHg 77%
    21:00 +18°C° 0 mm 3 m/s 749 mmHg 75%
    22:00 +17°C° 0 mm 3 m/s 749 mmHg 74%
    23:00 +17°C° 0 mm 2 m/s 749 mmHg 72%

    25 Junho, Terça-feira

    Tempo Temperatura Precipitação Vento Pressão Humidade
    00:00 +16°C° 0 mm 2 m/s 749 mmHg 77%
    01:00 +15°C° 0 mm 2 m/s 749 mmHg 81%
    02:00 +14°C° 0 mm 2 m/s 749 mmHg 85%
    03:00 +14°C° 0 mm 2 m/s 749 mmHg 86%
    04:00 +14°C° 0 mm 2 m/s 749 mmHg 86%
    05:00 +14°C° 0 mm 2 m/s 749 mmHg 86%
    06:00 +16°C° 0 mm 2 m/s 749 mmHg 81%
    07:00 +18°C° 0 mm 2 m/s 749 mmHg 76%
    08:00 +20°C° 0 mm 2 m/s 749 mmHg 71%
    09:00 +21°C° 0 mm 2 m/s 749 mmHg 65%
    10:00 +23°C° 0 mm 2 m/s 749 mmHg 59%
    11:00 +24°C° 0 mm 2 m/s 749 mmHg 54%
    12:00 +25°C° 0 mm 2 m/s 749 mmHg 52%
    13:00 +25°C° 0 mm 2 m/s 749 mmHg 50%
    14:00 +26°C° 0 mm 2 m/s 749 mmHg 48%
    15:00 +26°C° 0 mm 2 m/s 749 mmHg 51%
    16:00 +25°C° 0 mm 2 m/s 748 mmHg 54%
    17:00 +25°C° 0 mm 2 m/s 748 mmHg 58%
    18:00 +24°C° 0 mm 2 m/s 748 mmHg 64%
    19:00 +21°C° 0 mm 2 m/s 748 mmHg 69%
    20:00 +20°C° 0 mm 1 m/s 748 mmHg 75%
    21:00 +19°C° 0 mm 1 m/s 748 mmHg 77%
    22:00 +17°C° 0 mm 2 m/s 748 mmHg 80%
    23:00 +17°C° 0 mm 2 m/s 748 mmHg 82%
    Mostrar mais